[[{"header":{"parameterUnit":"m.s-1","parameterCategory":1,"la1":30.2991,"la2":30.254,"lo1":-89.0895,"lo2":-89.0444,"dy":0.0017,"dx":0.0017,"nx":28,"ny":28,"refTime":"2025-05-18T03:00:00:Z","depth":0,"parameterNumber":2,"parameterNumberName":"U-component_of_WINDS"},"data":[0,0,0,0,0,0,0,0,0,0,0,0,0,0,0,0,0,0,0,0,0,0,0,0,0,0,0,0,0,0,0,0,0,0,0,0,0,0,0,0,0,0,0,0,0,0,0,0,0,0,0,0,0,0,0,0,0,0,0.2199,0.22,0,0.2291,0.2292,0.2293,0.233,0.233,0.2329,0.2329,0.2425,0.2427,0.243,0,0,0,0,0,0,0,0,0,0,0,0,0,0.2057,0.2059,0.2199,0.2201,0.2202,0.2291,0.2292,0.2293,0.233,0.233,0.2329,0.2329,0.2424,0.2427,0.243,0,0,0,0,0,0,0,0,0,0,0,0,0,0.213,0.206,0.2199,0.2231,0.2234,0.2291,0.2292,0.2294,0.233,0.233,0.2329,0.2329,0.2423,0.2427,0.2431,0.2463,0,0,0.2443,0.2445,0,0,0,0,0,0,0,0,0.2126,0.2136,0.2225,0.2229,0.2233,0.2299,0.2277,0.235,0.233,0.2294,0.2329,0.2329,0.2383,0.239,0.2408,0.2467,0.2471,0.2444,0.2446,0.2448,0.2449,0,0,0,0,0,0,0,0.2121,0.2132,0.2236,0.2226,0.2231,0.224,0.225,0.2291,0.2339,0.2297,0.23,0.231,0.2385,0.2404,0.2411,0.2473,0.2443,0.2447,0.245,0.2451,0.2562,0.2563,0,0,0,0,0,0,0.2111,0.2127,0.2233,0.2238,0.2178,0.2243,0.2254,0.2278,0.2339,0.2348,0.231,0.2311,0.2397,0.2406,0.2414,0.2456,0.2448,0.2452,0.2454,0.2562,0.2562,0.2563,0,0,0,0,0,0,0.2107,0.212,0.2229,0.2184,0.2198,0.2246,0.2272,0.228,0.2299,0.2349,0.2358,0.2321,0.2397,0.2409,0.245,0.246,0.2454,0.2457,0.2561,0.2562,0.2563,0.2539,0,0,0,0,0,0,0.2103,0.2118,0.2131,0.2184,0.2201,0.2263,0.2273,0.2282,0.2306,0.2308,0.2361,0.237,0.2398,0.2444,0.2454,0.2465,0.2461,0.2561,0.2561,0.2562,0.2539,0.2539,0.2538,0,0,0,0,0,0.2098,0.2121,0.2131,0.2144,0.2217,0.2264,0.2273,0.2305,0.2306,0.232,0.2351,0.2368,0.2457,0.2448,0.246,0.2472,0.256,0.2561,0.2562,0.2539,0.2539,0.2538,0,0,0,0,0,0,0.2069,0.2129,0.2141,0.2182,0.2217,0.227,0.2287,0.2304,0.234,0.2341,0.2379,0.2391,0.2429,0.2455,0.2444,0.2506,0.251,0.2513,0.2488,0.2488,0.2487,0.2481,0.2464,0,0,0,0,0,0.2067,0.2099,0.215,0.2181,0.2198,0.224,0.2261,0.2282,0.2321,0.2336,0.2371,0.2408,0.2444,0.2468,0.2504,0.2543,0.2555,0.2557,0.2556,0.2556,0.2559,0.258,0.2582,0.2566,0.2566,0.2566,0,0,0.2064,0.2101,0.2119,0.2176,0.2206,0.2239,0.2252,0.2286,0.2311,0.2342,0.2383,0.241,0.2454,0.2494,0.2513,0.2516,0.2565,0.2557,0.2556,0.256,0.2582,0.2583,0.2584,0.2567,0.2567,0.2567,0,0,0.2075,0.2106,0.2136,0.2165,0.221,0.2237,0.2244,0.2294,0.2313,0.2354,0.2378,0.2408,0.2469,0.2499,0.2523,0.2544,0.256,0.2555,0.2553,0.2574,0.2575,0.2576,0.2583,0.2586,0.2557,0.2557,0.2557,0,0.2066,0.2116,0.2149,0.2181,0.2205,0.2234,0.2263,0.2291,0.2345,0.2361,0.2364,0.2441,0.2473,0.252,0.2525,0.2543,0.2552,0.2549,0.2572,0.2574,0.2575,0.2583,0.2585,0.2556,0.2556,0.2556,0.2556,0,0.2102,0.2136,0.2154,0.2205,0.2232,0.2263,0.23,0.2323,0.2341,0.2368,0.241,0.2448,0.2493,0.2505,0.2524,0.2555,0.2556,0.2564,0.2569,0.2575,0.2583,0.2586,0.2554,0.2555,0.2555,0.2555,0,0,0.2099,0.2166,0.2172,0.2196,0.2247,0.2274,0.2306,0.2348,0.2367,0.2403,0.2431,0.2482,0.249,0.2516,0.2539,0.2557,0.257,0.2564,0.2565,0.2563,0.2606,0.2599,0.2602,0.2581,0.2582,0.2583,0.2603,0,0.2116,0.2174,0.2204,0.2249,0.2281,0.2308,0.2336,0.237,0.2395,0.2426,0.2455,0.249,0.2498,0.2514,0.2534,0.2565,0.258,0.2564,0.2608,0.2609,0.2596,0.2606,0.2599,0.2616,0.2606,0.2606,0.2607,0,0.2145,0.218,0.2229,0.2275,0.229,0.2314,0.2355,0.2384,0.2423,0.244,0.2469,0.2491,0.2525,0.2526,0.2575,0.2563,0.2583,0.2601,0.2602,0.2608,0.2608,0.2612,0.2622,0.2625,0.2612,0.2611,0.2611,0,0.2137,0.2197,0.2233,0.2252,0.2307,0.2324,0.2348,0.2387,0.241,0.2445,0.2461,0.25,0.2522,0.2552,0.2584,0.2582,0.2628,0.2633,0.2644,0.2643,0.2653,0.2652,0.2667,0.2665,0.2665,0.2665,0.2665,0,0.2154,0.2182,0.223,0.2252,0.2285,0.2318,0.235,0.2376,0.241,0.2438,0.2463,0.2489,0.2529,0.256,0.2585,0.2621,0.2631,0.2646,0.2652,0.2643,0.2641,0.2657,0.2657,0.2666,0.2666,0.2666,0.2666,0,0.2151,0.2184,0.2225,0.2274,0.2286,0.2308,0.235,0.2373,0.2399,0.2434,0.2444,0.2486,0.2523,0.2557,0.2607,0.2624,0.266,0.2669,0.2647,0.265,0.266,0.2658,0.2685,0.269,0.2685,0.2685,0.2685,0,0.2159,0.2182,0.2232,0.2252,0.2275,0.2308,0.2331,0.2365,0.2389,0.2434,0.2451,0.249,0.2524,0.2582,0.2617,0.2655,0.2664,0.2671,0.267,0.2661,0.2664,0.2663,0.2665,0.2671,0.267,0.267,0.267,0,0.2171,0.2186,0.2218,0.2257,0.2284,0.2316,0.2348,0.2364,0.2404,0.2429,0.2467,0.2492,0.2543,0.2581,0.2623,0.2648,0.2666,0.267,0.2675,0.2666,0.2653,0.266,0.2645,0.267,0.267,0.267,0.267,0.267,0.2174,0.2194,0.2233,0.2268,0.2296,0.2326,0.2349,0.2378,0.2411,0.2454,0.2472,0.251,0.2548,0.2606,0.2631,0.2662,0.2666,0.2672,0.2674,0.2675,0.2673,0.2647,0.267,0.267,0.267,0.267,0.267,0,0.2186,0.2212,0.2244,0.2289,0.2316,0.233,0.2367,0.2389,0.2422,0.2456,0.2488,0.2531,0.2568,0.2606,0.2645,0.2662,0.2671,0.2671,0.2671,0.2676,0.2668,0.266,0.2663,0.2663,0.2663,0.2663,0.2663,0.2663,0.2196,0.2232,0.2251,0.2301,0.2327,0.2364,0.2384,0.2411,0.2438,0.2485,0.2516,0.254,0.2575,0.2617,0.2651,0.2661,0.2675,0.2672,0.2684,0.2676,0.2677,0.2677,0.2669,0.2675,0.2675,0.269,0.269,0.269]},{"header":{"parameterUnit":"m.s-1","parameterCategory":1,"la1":30.2991,"la2":30.254,"lo1":-89.0895,"lo2":-89.0444,"dy":0.0017,"dx":0.0017,"nx":28,"ny":28,"refTime":"2025-05-18T03:00:00:Z","depth":0,"parameterNumber":3,"parameterNumberName":"V-component_of_WINDS"},"data":[0,0,0,0,0,0,0,0,0,0,0,0,0,0,0,0,0,0,0,0,0,0,0,0,0,0,0,0,0,0,0,0,0,0,0,0,0,0,0,0,0,0,0,0,0,0,0,0,0,0,0,0,0,0,0,0,0,0,4.0844,4.0844,0,4.0839,4.0839,4.0839,4.0803,4.0802,4.0801,4.0801,4.0793,4.0794,4.0794,0,0,0,0,0,0,0,0,0,0,0,0,0,4.0823,4.0824,4.0844,4.0844,4.0844,4.0839,4.0839,4.0839,4.0803,4.0802,4.0801,4.08,4.0793,4.0794,4.0795,0,0,0,0,0,0,0,0,0,0,0,0,0,4.0827,4.0824,4.0844,4.0826,4.0824,4.0839,4.0839,4.0839,4.0804,4.0802,4.0801,4.08,4.0793,4.0794,4.0795,4.0826,0,0,4.0797,4.0798,0,0,0,0,0,0,0,0,4.0826,4.0827,4.0829,4.0827,4.0825,4.0821,4.0829,4.0835,4.0804,4.0811,4.0801,4.0799,4.0803,4.0803,4.0805,4.0826,4.0826,4.0798,4.0798,4.0798,4.0799,0,0,0,0,0,0,0,4.0826,4.0827,4.0842,4.0829,4.0827,4.0818,4.0817,4.083,4.0815,4.0811,4.0808,4.0808,4.0802,4.0804,4.0805,4.0826,4.0797,4.0798,4.0799,4.0799,4.0874,4.0876,0,0,0,0,0,0,4.0829,4.0827,4.0842,4.0842,4.0823,4.0819,4.0818,4.0823,4.0814,4.0812,4.0809,4.0806,4.0803,4.0804,4.0804,4.0842,4.0798,4.0799,4.08,4.0873,4.0875,4.0876,0,0,0,0,0,0,4.0828,4.083,4.0843,4.0834,4.0835,4.0821,4.0827,4.0824,4.0826,4.0813,4.081,4.0814,4.0802,4.0803,4.0822,4.0841,4.08,4.0801,4.0871,4.0873,4.0875,4.0917,0,0,0,0,0,0,4.0828,4.083,4.0842,4.0835,4.0836,4.0861,4.0828,4.0825,4.0828,4.0824,4.0817,4.0815,4.0801,4.0821,4.0823,4.0842,4.0801,4.0869,4.0872,4.0875,4.0914,4.0921,4.0926,0,0,0,0,0,4.0827,4.0853,4.0843,4.0845,4.085,4.0862,4.0862,4.0847,4.083,4.0842,4.0834,4.0815,4.0839,4.0823,4.0825,4.0845,4.0868,4.0871,4.0874,4.0911,4.0919,4.0926,0,0,0,0,0,0,4.0862,4.0852,4.084,4.0865,4.0865,4.0856,4.087,4.0855,4.0859,4.0855,4.0836,4.0834,4.0856,4.0852,4.0834,4.0876,4.085,4.0854,4.0878,4.0885,4.0891,4.0892,4.0802,0,0,0,0,0,4.0873,4.0884,4.0874,4.0897,4.0897,4.0884,4.0888,4.0877,4.0875,4.0875,4.0868,4.0867,4.0874,4.0879,4.0885,4.0913,4.0912,4.0928,4.0934,4.0939,4.0943,4.0959,4.0966,4.0887,4.0887,4.0887,0,0,4.0895,4.0891,4.0898,4.0904,4.0902,4.0914,4.0884,4.0897,4.0905,4.0876,4.0894,4.089,4.0887,4.0911,4.0921,4.0908,4.0965,4.0943,4.0947,4.0948,4.0963,4.0971,4.0977,4.0889,4.0889,4.0888,0,0,4.0941,4.0939,4.0958,4.0958,4.0957,4.0948,4.0953,4.0947,4.0943,4.0961,4.094,4.0949,4.0962,4.0962,4.0963,4.1012,4.0995,4.1014,4.1046,4.1062,4.1068,4.1074,4.1092,4.1099,4.1018,4.1018,4.1018,0,4.0969,4.0986,4.097,4.0985,4.0989,4.0964,4.0984,4.0984,4.0985,4.0988,4.0973,4.099,4.0986,4.1011,4.1023,4.1025,4.103,4.1015,4.1069,4.1074,4.1079,4.1097,4.1103,4.1021,4.102,4.102,4.102,0,4.102,4.1032,4.1048,4.1051,4.1056,4.1073,4.106,4.1067,4.1056,4.1049,4.1068,4.1064,4.1069,4.1074,4.1062,4.1098,4.109,4.1072,4.1046,4.1089,4.1106,4.1112,4.1024,4.1023,4.1022,4.1022,0,0,4.1086,4.1082,4.1088,4.109,4.1088,4.1097,4.1114,4.112,4.1127,4.1129,4.1143,4.1155,4.114,4.1142,4.113,4.1144,4.1185,4.1125,4.1125,4.1137,4.1225,4.1239,4.1246,4.1174,4.1175,4.1176,4.1225,0,4.1132,4.1161,4.1149,4.1179,4.1191,4.1169,4.1184,4.1184,4.1179,4.1188,4.1181,4.1191,4.1169,4.1171,4.1184,4.1177,4.1202,4.1173,4.1187,4.1188,4.1189,4.1255,4.1269,4.1315,4.1232,4.1233,4.1233,0,4.1188,4.1194,4.1226,4.1224,4.1228,4.1242,4.1248,4.1257,4.1257,4.1252,4.1256,4.1241,4.1258,4.1233,4.1256,4.1236,4.1241,4.1239,4.1241,4.1241,4.1213,4.1258,4.133,4.1337,4.1243,4.1242,4.1241,0,4.1235,4.1251,4.1272,4.1274,4.1272,4.1282,4.1282,4.1281,4.1286,4.1291,4.1295,4.1302,4.1305,4.1311,4.1299,4.1281,4.1324,4.1297,4.1321,4.1321,4.1331,4.1331,4.1405,4.1333,4.1333,4.1333,4.1333,0,4.1287,4.1308,4.1294,4.1307,4.133,4.1316,4.1339,4.1336,4.1336,4.1349,4.133,4.1342,4.1325,4.1336,4.1326,4.1348,4.1349,4.1346,4.1343,4.1348,4.1348,4.1351,4.1348,4.1335,4.1334,4.1334,4.1334,0,4.1343,4.1334,4.1357,4.1354,4.1354,4.1371,4.1368,4.138,4.1374,4.1391,4.1394,4.1384,4.1396,4.1384,4.1395,4.1388,4.1418,4.141,4.1418,4.1416,4.1441,4.1439,4.152,4.1531,4.1451,4.1452,4.1453,0,4.1377,4.1393,4.1392,4.14,4.1401,4.1413,4.142,4.1406,4.1414,4.1417,4.1429,4.144,4.1447,4.1467,4.1461,4.1469,4.1462,4.149,4.1463,4.1468,4.1464,4.1463,4.1465,4.1495,4.1496,4.1497,4.1498,0,4.1439,4.1434,4.1444,4.1454,4.1462,4.1469,4.1473,4.1481,4.1467,4.1476,4.1489,4.1495,4.1507,4.1518,4.1525,4.1524,4.1509,4.1506,4.1512,4.1518,4.1522,4.1522,4.1434,4.1504,4.1504,4.1503,4.1503,4.1503,4.1485,4.1499,4.1502,4.1514,4.1517,4.1522,4.1535,4.1531,4.1542,4.1552,4.1543,4.1559,4.156,4.1568,4.1569,4.1581,4.1569,4.1578,4.158,4.1583,4.1587,4.152,4.1582,4.1582,4.1582,4.1582,4.1581,0,4.1547,4.1548,4.156,4.1569,4.1579,4.1565,4.157,4.1579,4.1594,4.1597,4.1606,4.1621,4.1632,4.1628,4.1638,4.1648,4.1642,4.1651,4.1651,4.1651,4.1596,4.1591,4.1657,4.1657,4.1657,4.1657,4.1656,4.1656,4.158,4.1604,4.16,4.1626,4.1626,4.1643,4.1647,4.1652,4.1655,4.1674,4.1683,4.1681,4.1681,4.1691,4.1701,4.1699,4.1704,4.1717,4.1713,4.1662,4.1655,4.1648,4.1642,4.1718,4.1718,4.1766,4.1767,4.1767]}]]